SHIJIAN-17 (SJ-17)

Last updated on Sun Apr 12 2026 00:02:54 GMT+0000 (Coordinated Universal Time)

1 41838U 16065A 26101.30188279 -.00000226 00000+0 00000+0 0 9999 2 41838 5.5825 73.3912 0001525 346.6408 223.3713 0.99868985 34538
UTC large
Height (km)
Speed (km/s)
/
Latitude / Longitude
Inclination (degrees)
Orbital Period (minutes)
Azimuth
Elevation
Range (km)
Doppler Factor

Next 0 passes for location: London (51.5072 / 0.1276)

Sorry there are no passes over London.
SHIJIAN-17 (SJ-17)